TimeMST,TemperatureF,Dew PointF,Humidity,Sea Level PressureIn,VisibilityMPH,Wind Direction,Wind SpeedMPH,Gust SpeedMPH,PrecipitationIn,Events,Conditions,WindDirDegrees,DateUTC
12:53 AM,21.9,17.1,82,30.30,10.0,NNE,4.6,-,N/A,,Clear,30,2012-11-15 07:53:00
1:53 AM,19.9,17.1,89,30.31,10.0,NE,3.5,-,N/A,,Clear,50,2012-11-15 08:53:00
2:53 AM,23.0,16.0,74,30.28,10.0,North,6.9,-,N/A,,Clear,10,2012-11-15 09:53:00
3:53 AM,19.9,16.0,85,30.31,10.0,Calm,Calm,-,N/A,,Clear,0,2012-11-15 10:53:00
4:53 AM,21.9,16.0,78,30.32,10.0,North,5.8,-,N/A,,Clear,10,2012-11-15 11:53:00
5:53 AM,21.0,15.1,78,30.36,10.0,NNE,6.9,-,N/A,,Clear,20,2012-11-15 12:53:00
6:53 AM,19.9,15.1,81,30.42,10.0,Calm,Calm,-,N/A,,Clear,0,2012-11-15 13:53:00
7:53 AM,24.1,18.0,77,30.44,10.0,Calm,Calm,-,N/A,,Clear,0,2012-11-15 14:53:00
8:53 AM,32.0,19.9,61,30.42,10.0,Calm,Calm,-,N/A,,Clear,0,2012-11-15 15:53:00
9:53 AM,39.0,19.9,46,30.39,10.0,Calm,Calm,-,N/A,,Clear,0,2012-11-15 16:53:00
10:53 AM,44.1,19.9,38,30.39,10.0,SE,3.5,-,N/A,,Clear,140,2012-11-15 17:53:00
11:53 AM,48.0,12.9,24,30.34,10.0,WSW,4.6,-,N/A,,Clear,250,2012-11-15 18:53:00
12:53 PM,51.1,14.0,23,30.31,10.0,SSW,4.6,-,N/A,,Clear,200,2012-11-15 19:53:00
1:53 PM,53.1,16.0,23,30.31,10.0,SSW,5.8,-,N/A,,Clear,200,2012-11-15 20:53:00
2:53 PM,52.0,18.0,26,30.31,10.0,SSW,10.4,-,N/A,,Clear,200,2012-11-15 21:53:00
3:53 PM,50.0,18.0,28,30.34,10.0,SSW,6.9,-,N/A,,Clear,210,2012-11-15 22:53:00
4:53 PM,45.0,18.0,34,30.35,10.0,WSW,4.6,-,N/A,,Clear,240,2012-11-15 23:53:00
5:53 PM,43.0,17.1,35,30.38,10.0,Calm,Calm,-,N/A,,Clear,0,2012-11-16 00:53:00
6:53 PM,33.1,21.9,64,30.45,10.0,NE,6.9,-,N/A,,Clear,50,2012-11-16 01:53:00
7:53 PM,34.0,21.0,59,30.43,10.0,North,9.2,-,N/A,,Clear,360,2012-11-16 02:53:00
8:53 PM,30.9,21.0,67,30.40,10.0,Calm,Calm,-,N/A,,Clear,0,2012-11-16 03:53:00
9:53 PM,32.0,21.0,64,30.35,10.0,North,4.6,-,N/A,,Clear,10,2012-11-16 04:53:00
10:53 PM,30.0,21.9,72,30.36,10.0,Calm,Calm,-,N/A,,Clear,0,2012-11-16 05:53:00
11:53 PM,30.0,21.9,72,30.35,10.0,Calm,Calm,-,N/A,,Clear,0,2012-11-16 06:53:00